Time,TemperatureF,DewpointF,PressureIn,WindDirection,WindDirectionDegrees,WindSpeedMPH,WindSpeedGustMPH,Humidity,HourlyPrecipIn,Conditions,Clouds,dailyrainin,SoftwareType,DateUTC
2014-12-27 00:00:00,36.1,32.2,30.07,NNE,23,0.0,0.0,86,0.00,,,0.00,WUHU216HW,2014-12-27 05:00:00,
2014-12-27 00:05:00,36.1,32.2,30.07,NNE,23,0.0,0.0,86,0.00,,,0.00,WUHU216HW,2014-12-27 05:05:00,
2014-12-27 00:10:00,35.9,32.1,30.06,NNE,23,0.0,0.0,86,0.00,,,0.00,WUHU216HW,2014-12-27 05:10:00,
2014-12-27 00:15:00,35.9,32.1,30.06,NNE,23,0.0,0.0,86,0.00,,,0.00,WUHU216HW,2014-12-27 05:15:00,
2014-12-27 00:20:00,35.9,32.1,30.06,NNE,23,0.0,0.0,86,0.00,,,0.00,WUHU216HW,2014-12-27 05:20:00,
2014-12-27 00:25:00,35.9,32.1,30.06,NNE,23,0.0,0.0,86,0.00,,,0.00,WUHU216HW,2014-12-27 05:25:00,
2014-12-27 00:30:00,35.7,31.9,30.06,NNE,23,0.0,0.0,86,0.00,,,0.00,WUHU216HW,2014-12-27 05:30:00,
2014-12-27 00:35:00,35.7,31.9,30.06,NNE,23,0.0,0.0,86,0.00,,,0.00,WUHU216HW,2014-12-27 05:35:00,
2014-12-27 00:40:00,35.7,31.9,30.06,NNE,23,0.0,0.0,86,0.00,,,0.00,WUHU216HW,2014-12-27 05:40:00,
2014-12-27 00:45:00,35.7,31.9,30.06,NNE,23,0.0,0.0,86,0.00,,,0.00,WUHU216HW,2014-12-27 05:45:00,
2014-12-27 00:50:00,35.7,31.9,30.07,NNE,23,0.0,0.0,86,0.00,,,0.00,WUHU216HW,2014-12-27 05:50:00,
2014-12-27 00:55:00,35.7,31.9,30.06,NNE,23,0.0,0.0,86,0.00,,,0.00,WUHU216HW,2014-12-27 05:55:00,
2014-12-27 01:00:00,35.6,31.7,30.06,NNE,23,0.0,0.0,86,0.00,,,0.00,WUHU216HW,2014-12-27 06:00:00,
2014-12-27 01:05:00,35.4,31.5,30.06,NNE,23,0.0,0.0,86,0.00,,,0.00,WUHU216HW,2014-12-27 06:05:00,
2014-12-27 01:10:00,35.4,31.5,30.06,NNE,23,0.0,0.0,86,0.00,,,0.00,WUHU216HW,2014-12-27 06:10:00,
2014-12-27 01:15:00,35.4,31.5,30.05,NNE,23,0.0,0.0,86,0.00,,,0.00,WUHU216HW,2014-12-27 06:15:00,
2014-12-27 01:20:00,35.4,31.5,30.05,NNE,23,0.0,0.0,86,0.00,,,0.00,WUHU216HW,2014-12-27 06:20:00,
2014-12-27 01:25:00,35.4,31.5,30.05,NNE,23,0.0,0.0,86,0.00,,,0.00,WUHU216HW,2014-12-27 06:25:00,
2014-12-27 01:30:00,35.4,31.5,30.05,NNE,23,0.0,0.0,86,0.00,,,0.00,WUHU216HW,2014-12-27 06:30:00,
2014-12-27 01:35:00,35.4,31.5,30.05,NNE,23,0.0,0.0,86,0.00,,,0.00,WUHU216HW,2014-12-27 06:35:00,
2014-12-27 01:40:00,35.4,31.5,30.05,NNE,23,0.0,0.0,86,0.00,,,0.00,WUHU216HW,2014-12-27 06:40:00,
2014-12-27 01:45:00,35.2,31.3,30.05,NNE,23,0.0,0.0,86,0.00,,,0.00,WUHU216HW,2014-12-27 06:45:00,
2014-12-27 01:50:00,35.2,31.3,30.05,NNE,23,0.0,0.0,86,0.00,,,0.00,WUHU216HW,2014-12-27 06:50:00,
2014-12-27 01:55:00,35.2,31.3,30.05,NNE,23,0.0,0.0,86,0.00,,,0.00,WUHU216HW,2014-12-27 06:55:00,
2014-12-27 02:00:00,35.0,31.2,30.05,NNE,23,0.0,0.0,86,0.00,,,0.00,WUHU216HW,2014-12-27 07:00:00,
2014-12-27 02:05:00,34.8,31.0,30.06,NNE,23,0.0,0.0,86,0.00,,,0.00,WUHU216HW,2014-12-27 07:05:00,
2014-12-27 02:10:00,34.8,31.3,30.06,NNE,23,0.0,0.0,87,0.00,,,0.00,WUHU216HW,2014-12-27 07:10:00,
2014-12-27 02:15:00,34.8,31.3,30.06,NNE,23,0.0,0.0,87,0.00,,,0.00,WUHU216HW,2014-12-27 07:15:00,
2014-12-27 02:20:00,34.8,31.3,30.06,NNE,23,0.0,0.0,87,0.00,,,0.00,WUHU216HW,2014-12-27 07:20:00,
2014-12-27 02:25:00,34.8,31.3,30.06,NNE,23,0.0,0.0,87,0.00,,,0.00,WUHU216HW,2014-12-27 07:25:00,
2014-12-27 02:30:00,34.8,31.3,30.06,NNE,23,0.0,0.0,87,0.00,,,0.00,WUHU216HW,2014-12-27 07:30:00,
2014-12-27 02:35:00,34.8,31.3,30.06,NNE,23,0.0,0.0,87,0.00,,,0.00,WUHU216HW,2014-12-27 07:35:00,
2014-12-27 02:40:00,34.8,31.3,30.06,NNE,23,0.0,0.0,87,0.00,,,0.00,WUHU216HW,2014-12-27 07:40:00,
2014-12-27 02:45:00,34.8,31.3,30.06,NNE,23,0.0,0.0,87,0.00,,,0.00,WUHU216HW,2014-12-27 07:45:00,
2014-12-27 02:50:00,34.8,31.3,30.06,NNE,23,0.0,0.0,87,0.00,,,0.00,WUHU216HW,2014-12-27 07:50:00,
2014-12-27 02:55:00,34.8,31.3,30.06,NNE,23,0.0,0.0,87,0.00,,,0.00,WUHU216HW,2014-12-27 07:55:00,
2014-12-27 03:00:00,34.7,31.1,30.06,NNE,23,0.0,0.0,87,0.00,,,0.00,WUHU216HW,2014-12-27 08:00:00,
2014-12-27 03:05:00,34.7,31.1,30.06,NNE,23,0.0,0.0,87,0.00,,,0.00,WUHU216HW,2014-12-27 08:05:00,
2014-12-27 03:10:00,34.5,30.9,30.07,NNE,23,0.0,0.0,87,0.00,,,0.00,WUHU216HW,2014-12-27 08:10:00,
2014-12-27 03:15:00,34.3,30.7,30.06,NNE,23,0.0,0.0,87,0.00,,,0.00,WUHU216HW,2014-12-27 08:15:00,
2014-12-27 03:20:00,34.3,30.7,30.06,NNE,23,0.0,0.0,87,0.00,,,0.00,WUHU216HW,2014-12-27 08:20:00,
2014-12-27 03:25:00,34.3,30.7,30.06,NNE,23,0.0,0.0,87,0.00,,,0.00,WUHU216HW,2014-12-27 08:25:00,
2014-12-27 03:30:00,34.3,30.7,30.06,NNE,23,0.0,0.0,87,0.00,,,0.00,WUHU216HW,2014-12-27 08:30:00,
2014-12-27 03:35:00,34.3,30.7,30.07,NNE,23,0.0,0.0,87,0.00,,,0.00,WUHU216HW,2014-12-27 08:35:00,
2014-12-27 03:40:00,34.3,30.7,30.07,NNE,23,0.0,0.0,87,0.00,,,0.00,WUHU216HW,2014-12-27 08:40:00,
2014-12-27 03:45:00,34.3,30.7,30.07,NNE,23,0.0,0.0,87,0.00,,,0.00,WUHU216HW,2014-12-27 08:45:00,
2014-12-27 03:50:00,34.3,30.7,30.08,NNE,23,0.0,0.0,87,0.00,,,0.00,WUHU216HW,2014-12-27 08:50:00,
2014-12-27 03:55:00,34.5,30.9,30.07,NNE,23,0.0,0.0,87,0.00,,,0.00,WUHU216HW,2014-12-27 08:55:00,
2014-12-27 04:00:00,34.5,31.2,30.07,NNE,23,0.0,0.0,88,0.00,,,0.00,WUHU216HW,2014-12-27 09:00:00,
2014-12-27 04:05:00,34.5,31.2,30.07,NNE,23,0.0,0.0,88,0.00,,,0.00,WUHU216HW,2014-12-27 09:05:00,
2014-12-27 04:10:00,34.8,31.6,30.07,NNE,23,0.0,0.0,88,0.00,,,0.00,WUHU216HW,2014-12-27 09:10:00,
2014-12-27 04:15:00,34.8,31.6,30.07,NNE,23,0.0,0.0,88,0.00,,,0.00,WUHU216HW,2014-12-27 09:15:00,
2014-12-27 04:20:00,35.0,31.7,30.06,NNE,23,0.0,0.0,88,0.00,,,0.00,WUHU216HW,2014-12-27 09:20:00,
2014-12-27 04:25:00,35.2,31.9,30.07,NNE,23,0.0,0.0,88,0.00,,,0.00,WUHU216HW,2014-12-27 09:25:00,
2014-12-27 04:30:00,35.2,31.9,30.06,NNE,23,0.0,0.0,88,0.00,,,0.00,WUHU216HW,2014-12-27 09:30:00,
2014-12-27 04:35:00,35.4,32.1,30.06,NNE,23,0.0,0.0,88,0.00,,,0.00,WUHU216HW,2014-12-27 09:35:00,
2014-12-27 04:40:00,35.4,32.1,30.06,NNE,23,0.0,0.0,88,0.00,,,0.00,WUHU216HW,2014-12-27 09:40:00,
2014-12-27 04:45:00,35.6,32.3,30.06,NNE,23,0.0,0.0,88,0.02,,,0.02,WUHU216HW,2014-12-27 09:45:00,
2014-12-27 04:50:00,35.7,32.5,30.06,NNE,23,0.0,0.0,88,0.02,,,0.02,WUHU216HW,2014-12-27 09:50:00,
2014-12-27 04:55:00,35.7,32.5,30.06,NNE,23,0.0,0.0,88,0.02,,,0.02,WUHU216HW,2014-12-27 09:55:00,
2014-12-27 05:00:00,35.9,32.6,30.06,NNE,23,0.0,0.0,88,0.02,,,0.02,WUHU216HW,2014-12-27 10:00:00,
2014-12-27 05:05:00,35.9,32.6,30.06,NNE,23,0.0,0.0,88,0.02,,,0.02,WUHU216HW,2014-12-27 10:05:00,
2014-12-27 05:10:00,36.1,32.8,30.06,NNE,23,0.0,0.0,88,0.02,,,0.02,WUHU216HW,2014-12-27 10:10:00,
2014-12-27 05:15:00,36.3,33.0,30.06,NNE,23,0.0,0.0,88,0.02,,,0.02,WUHU216HW,2014-12-27 10:15:00,
2014-12-27 05:20:00,36.3,33.0,30.06,NNE,23,0.0,0.0,88,0.02,,,0.02,WUHU216HW,2014-12-27 10:20:00,
2014-12-27 05:25:00,36.5,33.2,30.06,NNE,23,0.0,0.0,88,0.02,,,0.02,WUHU216HW,2014-12-27 10:25:00,
2014-12-27 05:30:00,36.5,33.2,30.06,NNE,23,0.0,0.0,88,0.02,,,0.02,WUHU216HW,2014-12-27 10:30:00,
2014-12-27 05:35:00,36.5,33.2,30.06,NNE,23,0.0,0.0,88,0.02,,,0.02,WUHU216HW,2014-12-27 10:35:00,
2014-12-27 05:40:00,36.6,33.4,30.06,NNE,23,0.0,0.0,88,0.00,,,0.02,WUHU216HW,2014-12-27 10:40:00,
2014-12-27 05:45:00,36.8,33.8,30.06,NNE,23,0.0,0.0,89,0.00,,,0.02,WUHU216HW,2014-12-27 10:45:00,
2014-12-27 05:50:00,37.0,34.0,30.06,NNE,23,0.0,0.0,89,0.02,,,0.04,WUHU216HW,2014-12-27 10:50:00,
2014-12-27 05:55:00,37.0,34.0,30.06,NNE,23,0.0,0.0,89,0.02,,,0.04,WUHU216HW,2014-12-27 10:55:00,
2014-12-27 06:00:00,37.2,34.2,30.06,NNE,23,0.0,0.0,89,0.02,,,0.04,WUHU216HW,2014-12-27 11:00:00,
2014-12-27 06:05:00,37.2,34.2,30.06,NNE,23,0.0,0.0,89,0.02,,,0.04,WUHU216HW,2014-12-27 11:05:00,
2014-12-27 06:10:00,37.2,34.2,30.06,NNE,23,0.0,0.0,89,0.02,,,0.04,WUHU216HW,2014-12-27 11:10:00,
2014-12-27 06:15:00,37.4,34.4,30.06,NNE,23,0.0,0.0,89,0.04,,,0.06,WUHU216HW,2014-12-27 11:15:00,
2014-12-27 06:20:00,37.5,34.5,30.06,NNE,23,0.0,0.0,89,0.04,,,0.06,WUHU216HW,2014-12-27 11:20:00,
2014-12-27 06:25:00,37.5,34.5,30.06,NNE,23,0.0,0.0,89,0.04,,,0.06,WUHU216HW,2014-12-27 11:25:00,
2014-12-27 06:30:00,37.7,34.7,30.06,NNE,23,0.0,0.0,89,0.04,,,0.06,WUHU216HW,2014-12-27 11:30:00,
2014-12-27 06:35:00,37.7,34.7,30.06,NNE,23,0.0,0.0,89,0.04,,,0.06,WUHU216HW,2014-12-27 11:35:00,
2014-12-27 06:40:00,37.7,34.7,30.06,NNE,23,0.0,0.0,89,0.04,,,0.06,WUHU216HW,2014-12-27 11:40:00,
2014-12-27 06:45:00,37.9,34.9,30.06,NNE,23,0.0,0.0,89,0.04,,,0.06,WUHU216HW,2014-12-27 11:45:00,
2014-12-27 06:50:00,37.9,34.9,30.06,NNE,23,0.0,0.0,89,0.02,,,0.06,WUHU216HW,2014-12-27 11:50:00,
2014-12-27 06:55:00,38.1,35.1,30.06,NNE,23,0.0,0.0,89,0.02,,,0.06,WUHU216HW,2014-12-27 11:55:00,
2014-12-27 07:00:00,38.1,35.1,30.06,NNE,23,0.0,0.0,89,0.02,,,0.06,WUHU216HW,2014-12-27 12:00:00,
2014-12-27 07:05:00,38.1,35.1,30.06,NNE,23,0.0,0.0,89,0.02,,,0.06,WUHU216HW,2014-12-27 12:05:00,
2014-12-27 07:10:00,38.3,35.3,30.06,NNE,23,0.0,0.0,89,0.00,,,0.06,WUHU216HW,2014-12-27 12:10:00,
2014-12-27 07:15:00,38.3,35.3,30.06,NNE,23,0.0,0.0,89,0.00,,,0.06,WUHU216HW,2014-12-27 12:15:00,
2014-12-27 07:20:00,38.4,35.4,30.06,NNE,23,0.0,0.0,89,0.00,,,0.06,WUHU216HW,2014-12-27 12:20:00,
2014-12-27 07:25:00,38.8,35.8,30.06,NNE,23,0.0,0.0,89,0.00,,,0.06,WUHU216HW,2014-12-27 12:25:00,
2014-12-27 07:30:00,38.8,35.8,30.05,NNE,23,0.0,0.0,89,0.00,,,0.06,WUHU216HW,2014-12-27 12:30:00,
2014-12-27 07:35:00,39.0,36.3,30.06,NNE,23,0.0,0.0,90,0.00,,,0.06,WUHU216HW,2014-12-27 12:35:00,
2014-12-27 07:40:00,39.0,36.3,30.06,NNE,23,0.0,0.0,90,0.00,,,0.06,WUHU216HW,2014-12-27 12:40:00,
2014-12-27 07:45:00,39.2,36.5,30.06,NNE,23,0.0,0.0,90,0.00,,,0.06,WUHU216HW,2014-12-27 12:45:00,
2014-12-27 07:50:00,39.3,36.6,30.06,NNE,23,0.0,0.0,90,0.00,,,0.06,WUHU216HW,2014-12-27 12:50:00,
2014-12-27 07:55:00,39.3,36.6,30.06,NNE,23,0.0,0.0,90,0.00,,,0.06,WUHU216HW,2014-12-27 12:55:00,
2014-12-27 08:00:00,39.7,37.0,30.06,NNE,23,0.0,0.0,90,0.00,,,0.06,WUHU216HW,2014-12-27 13:00:00,
2014-12-27 08:05:00,39.9,37.2,30.05,NNE,23,0.0,0.0,90,0.00,,,0.06,WUHU216HW,2014-12-27 13:05:00,
2014-12-27 08:10:00,40.1,37.4,30.06,NNE,23,0.0,0.0,90,0.00,,,0.06,WUHU216HW,2014-12-27 13:10:00,
2014-12-27 08:15:00,40.1,37.4,30.06,NNE,23,0.0,0.0,90,0.02,,,0.08,WUHU216HW,2014-12-27 13:15:00,
2014-12-27 08:20:00,40.2,37.5,30.06,NNE,23,0.0,0.0,90,0.02,,,0.08,WUHU216HW,2014-12-27 13:20:00,
2014-12-27 08:25:00,40.2,37.5,30.06,NNE,23,0.0,0.0,90,0.02,,,0.08,WUHU216HW,2014-12-27 13:25:00,
2014-12-27 08:30:00,40.6,37.9,30.06,NNE,23,0.0,0.0,90,0.02,,,0.08,WUHU216HW,2014-12-27 13:30:00,
2014-12-27 08:35:00,40.6,37.9,30.06,NE,45,0.0,0.0,90,0.02,,,0.08,WUHU216HW,2014-12-27 13:35:00,
2014-12-27 08:40:00,40.8,38.1,30.06,NE,45,0.0,0.0,90,0.02,,,0.08,WUHU216HW,2014-12-27 13:40:00,
2014-12-27 08:45:00,40.8,38.1,30.06,NE,45,0.0,0.0,90,0.02,,,0.08,WUHU216HW,2014-12-27 13:45:00,
2014-12-27 08:50:00,41.1,38.4,30.06,NE,45,0.0,0.0,90,0.02,,,0.08,WUHU216HW,2014-12-27 13:50:00,
2014-12-27 08:55:00,41.1,38.7,30.07,NE,45,0.0,0.0,91,0.02,,,0.08,WUHU216HW,2014-12-27 13:55:00,
2014-12-27 09:00:00,41.3,38.9,30.07,NE,45,0.0,0.0,91,0.02,,,0.08,WUHU216HW,2014-12-27 14:00:00,
2014-12-27 09:05:00,41.3,38.9,30.07,NE,45,0.0,0.0,91,0.02,,,0.08,WUHU216HW,2014-12-27 14:05:00,
2014-12-27 09:10:00,41.5,39.1,30.07,NE,45,0.0,0.0,91,0.02,,,0.08,WUHU216HW,2014-12-27 14:10:00,
2014-12-27 09:15:00,41.5,39.1,30.08,NE,45,0.0,0.0,91,0.00,,,0.08,WUHU216HW,2014-12-27 14:15:00,
2014-12-27 09:20:00,41.7,39.2,30.08,NE,45,0.0,0.0,91,0.00,,,0.08,WUHU216HW,2014-12-27 14:20:00,
2014-12-27 09:25:00,41.7,39.2,30.07,NE,45,0.0,0.0,91,0.00,,,0.08,WUHU216HW,2014-12-27 14:25:00,
2014-12-27 09:30:00,41.9,39.4,30.07,NE,45,0.0,0.0,91,0.00,,,0.08,WUHU216HW,2014-12-27 14:30:00,
2014-12-27 09:36:00,42.0,39.6,30.07,NE,45,0.0,0.0,91,0.00,,,0.08,WUHU216HW,2014-12-27 14:36:00,
2014-12-27 09:41:00,42.0,39.6,30.08,NE,45,0.0,0.0,91,0.00,,,0.08,WUHU216HW,2014-12-27 14:41:00,
2014-12-27 09:46:00,42.4,40.0,30.07,NE,45,0.0,0.0,91,0.00,,,0.08,WUHU216HW,2014-12-27 14:46:00,
2014-12-27 09:51:00,42.4,40.0,30.07,NE,45,0.0,0.0,91,0.00,,,0.08,WUHU216HW,2014-12-27 14:51:00,
2014-12-27 09:56:00,42.6,40.1,30.07,ENE,68,0.0,0.0,91,0.00,,,0.08,WUHU216HW,2014-12-27 14:56:00,
2014-12-27 10:01:00,42.6,40.1,30.08,ENE,68,0.0,0.0,91,0.00,,,0.08,WUHU216HW,2014-12-27 15:01:00,
2014-12-27 10:06:00,42.9,40.5,30.08,ENE,68,0.0,0.0,91,0.00,,,0.08,WUHU216HW,2014-12-27 15:06:00,
2014-12-27 10:11:00,42.9,40.5,30.08,ENE,68,0.0,0.0,91,0.00,,,0.08,WUHU216HW,2014-12-27 15:11:00,
2014-12-27 10:16:00,43.1,40.7,30.08,ENE,68,0.0,0.0,91,0.00,,,0.08,WUHU216HW,2014-12-27 15:16:00,
2014-12-27 10:21:00,43.3,40.9,30.08,East,90,0.0,0.0,91,0.00,,,0.08,WUHU216HW,2014-12-27 15:21:00,
2014-12-27 10:26:00,43.5,41.3,30.08,ESE,113,0.0,0.0,92,0.00,,,0.08,WUHU216HW,2014-12-27 15:26:00,
2014-12-27 10:31:00,43.5,41.3,30.08,SE,135,0.0,0.0,92,0.00,,,0.08,WUHU216HW,2014-12-27 15:31:00,
2014-12-27 10:36:00,43.7,41.5,30.09,SE,135,0.0,0.0,92,0.00,,,0.08,WUHU216HW,2014-12-27 15:36:00,
2014-12-27 10:41:00,43.8,41.7,30.09,WSW,248,0.0,0.0,92,0.00,,,0.08,WUHU216HW,2014-12-27 15:41:00,
2014-12-27 10:46:00,44.0,41.9,30.09,ENE,68,0.0,0.0,92,0.00,,,0.08,WUHU216HW,2014-12-27 15:46:00,
2014-12-27 10:51:00,44.2,42.0,30.09,ENE,68,0.0,0.0,92,0.00,,,0.08,WUHU216HW,2014-12-27 15:51:00,
2014-12-27 10:56:00,44.2,42.0,30.08,West,270,0.0,0.0,92,0.00,,,0.08,WUHU216HW,2014-12-27 15:56:00,
2014-12-27 11:01:00,44.4,42.2,30.08,ESE,113,0.0,0.0,92,0.00,,,0.08,WUHU216HW,2014-12-27 16:01:00,
2014-12-27 11:06:00,44.4,42.2,30.08,ESE,113,0.0,0.0,92,0.00,,,0.08,WUHU216HW,2014-12-27 16:06:00,
2014-12-27 11:11:00,44.6,42.4,30.08,NW,315,0.0,0.0,92,0.00,,,0.08,WUHU216HW,2014-12-27 16:11:00,
2014-12-27 11:16:00,44.7,42.6,30.08,West,270,0.0,0.0,92,0.00,,,0.08,WUHU216HW,2014-12-27 16:16:00,
2014-12-27 11:21:00,44.9,42.8,30.08,SE,135,0.0,0.0,92,0.00,,,0.08,WUHU216HW,2014-12-27 16:21:00,
2014-12-27 11:26:00,44.9,42.8,30.08,ESE,113,0.0,0.0,92,0.00,,,0.08,WUHU216HW,2014-12-27 16:26:00,
2014-12-27 11:31:00,44.9,42.8,30.08,West,270,0.0,0.0,92,0.00,,,0.08,WUHU216HW,2014-12-27 16:31:00,
2014-12-27 11:36:00,45.1,42.9,30.06,ENE,68,0.0,0.0,92,0.00,,,0.08,WUHU216HW,2014-12-27 16:36:00,
2014-12-27 11:41:00,44.9,42.8,30.06,ENE,68,0.0,0.0,92,0.00,,,0.08,WUHU216HW,2014-12-27 16:41:00,
2014-12-27 11:46:00,45.1,42.9,30.06,ENE,68,0.0,0.0,92,0.00,,,0.08,WUHU216HW,2014-12-27 16:46:00,
2014-12-27 11:51:00,45.1,42.9,30.05,North,0,0.0,0.8,92,0.00,,,0.08,WUHU216HW,2014-12-27 16:51:00,
2014-12-27 11:56:00,45.3,43.1,30.05,NNE,23,0.0,0.8,92,0.00,,,0.08,WUHU216HW,2014-12-27 16:56:00,
2014-12-27 12:01:00,45.3,43.1,30.05,ENE,68,0.0,0.0,92,0.00,,,0.08,WUHU216HW,2014-12-27 17:01:00,
2014-12-27 12:06:00,45.5,43.3,30.04,East,90,0.0,0.0,92,0.00,,,0.08,WUHU216HW,2014-12-27 17:06:00,